TimeEDT,TemperatureF,Dew PointF,Humidity,Sea Level PressureIn,VisibilityMPH,Wind Direction,Wind SpeedMPH,Gust SpeedMPH,PrecipitationIn,Events,Conditions,WindDirDegrees,DateUTC
12:51 AM,55.0,51.1,86,29.92,-9999.0,SSE,4.6,-,N/A,,Unknown,160,2013-04-30 04:51:00
1:51 AM,55.0,51.1,86,29.93,-9999.0,SSE,5.8,-,N/A,,Unknown,160,2013-04-30 05:51:00
2:51 AM,55.0,50.0,83,29.93,-9999.0,South,4.6,-,N/A,,Unknown,170,2013-04-30 06:51:00
3:51 AM,54.0,50.0,86,29.94,-9999.0,SSE,3.5,-,N/A,,Unknown,160,2013-04-30 07:51:00
4:51 AM,54.0,50.0,86,29.95,-9999.0,SSE,3.5,-,N/A,,Unknown,160,2013-04-30 08:51:00
5:51 AM,51.1,48.0,89,29.96,-9999.0,SSE,3.5,-,N/A,,Unknown,160,2013-04-30 09:51:00
6:51 AM,51.1,48.0,89,29.95,-9999.0,SSE,3.5,-,N/A,,Unknown,150,2013-04-30 10:51:00
7:51 AM,53.1,48.9,86,29.98,-9999.0,SSE,5.8,-,N/A,,Unknown,160,2013-04-30 11:51:00
8:51 AM,57.9,51.1,78,30.00,-9999.0,South,6.9,-,N/A,,Unknown,170,2013-04-30 12:51:00
9:51 AM,63.0,53.1,70,29.99,-9999.0,South,8.1,-,N/A,,Unknown,170,2013-04-30 13:51:00
10:51 AM,64.0,53.1,67,30.00,-9999.0,South,12.7,19.6,N/A,,Unknown,170,2013-04-30 14:51:00
11:51 AM,64.0,52.0,65,30.04,-9999.0,SSW,5.8,-,N/A,,Unknown,200,2013-04-30 15:51:00
12:51 PM,61.0,54.0,78,29.98,-9999.0,South,10.4,21.9,0.03,,Unknown,170,2013-04-30 16:51:00
1:51 PM,63.0,54.0,72,29.96,-9999.0,SSE,11.5,19.6,N/A,,Unknown,160,2013-04-30 17:51:00
2:51 PM,64.0,55.0,73,29.94,-9999.0,South,10.4,20.7,N/A,,Unknown,170,2013-04-30 18:51:00
3:51 PM,68.0,54.0,61,29.94,-9999.0,SSE,11.5,23.0,N/A,,Unknown,160,2013-04-30 19:51:00
4:51 PM,66.9,53.1,61,29.94,-9999.0,South,9.2,24.2,N/A,,Unknown,170,2013-04-30 20:51:00
5:51 PM,66.9,52.0,59,29.94,-9999.0,South,12.7,26.5,N/A,,Unknown,170,2013-04-30 21:51:00
6:51 PM,69.1,51.1,53,29.94,-9999.0,South,9.2,23.0,N/A,,Unknown,180,2013-04-30 22:51:00
7:51 PM,68.0,53.1,59,29.95,-9999.0,South,8.1,23.0,N/A,,Unknown,170,2013-04-30 23:51:00
8:51 PM,66.0,53.1,63,29.96,-9999.0,South,10.4,20.7,N/A,,Unknown,170,2013-05-01 00:51:00
9:51 PM,64.9,53.1,65,29.99,-9999.0,South,9.2,-,N/A,,Unknown,170,2013-05-01 01:51:00
10:51 PM,64.9,52.0,63,30.01,-9999.0,Variable,6.9,-,N/A,,Unknown,0,2013-05-01 02:51:00
11:51 PM,63.0,53.1,70,30.02,-9999.0,South,8.1,-,N/A,,Unknown,170,2013-05-01 03:51:00